When you browse on this site, cookies collect data to enhance your experience and personalize the content and advertising you see.
Visit our Privacy Policy to learn more. By continuing to use the site, you agree to this use of cookies and data.

Hourly Weather Pinsa

Today, 11 August, Tuesday

Time Temperature Precipitation Wind Pressure Humidity
00:00 +28°C° 0 mm 1 mps 733 mmHg 75%
01:00 +28°C° 0.6 mm 2 mps 732 mmHg 77%
02:00 +28°C° 0.6 mm 3 mps 731 mmHg 79%
03:00 +27°C° 0.6 mm 4 mps 731 mmHg 82%
04:00 +27°C° 2.8 mm 4 mps 731 mmHg 84%
05:00 +26°C° 2.8 mm 4 mps 732 mmHg 87%
06:00 +26°C° 2.8 mm 5 mps 732 mmHg 90%
07:00 +26°C° 3.9 mm 5 mps 732 mmHg 90%
08:00 +26°C° 3.9 mm 5 mps 733 mmHg 90%
09:00 +26°C° 3.9 mm 5 mps 733 mmHg 89%
10:00 +27°C° 0 mm 5 mps 733 mmHg 85%
11:00 +27°C° 0 mm 4 mps 733 mmHg 80%
12:00 +28°C° 0 mm 4 mps 733 mmHg 75%
13:00 +29°C° 0.4 mm 5 mps 733 mmHg 73%
14:00 +29°C° 0.4 mm 6 mps 733 mmHg 72%
15:00 +29°C° 0.4 mm 6 mps 732 mmHg 71%
16:00 +29°C° 0 mm 6 mps 732 mmHg 72%
17:00 +28°C° 0 mm 6 mps 732 mmHg 74%
18:00 +28°C° 0 mm 6 mps 732 mmHg 75%
19:00 +27°C° 0 mm 6 mps 733 mmHg 77%
20:00 +27°C° 0 mm 5 mps 733 mmHg 79%
21:00 +27°C° 0 mm 5 mps 734 mmHg 81%
22:00 +26°C° 0 mm 5 mps 734 mmHg 82%
23:00 +26°C° 0 mm 5 mps 734 mmHg 83%

Tomorrow, 12 August, Wednesday

Time Temperature Precipitation Wind Pressure Humidity
00:00 +25°C° 0 mm 5 mps 734 mmHg 83%
01:00 +25°C° 0 mm 5 mps 734 mmHg 84%
02:00 +25°C° 0 mm 5 mps 734 mmHg 85%
03:00 +25°C° 0 mm 5 mps 734 mmHg 86%
04:00 +25°C° 0 mm 4 mps 734 mmHg 86%
05:00 +23°C° 0 mm 4 mps 734 mmHg 87%
06:00 +24°C° 0 mm 3 mps 735 mmHg 87%
07:00 +25°C° 0 mm 4 mps 735 mmHg 82%
08:00 +27°C° 0 mm 5 mps 736 mmHg 77%
09:00 +28°C° 0 mm 5 mps 736 mmHg 72%
10:00 +29°C° 0 mm 5 mps 736 mmHg 67%
11:00 +30°C° 0 mm 6 mps 736 mmHg 63%
12:00 +32°C° 0 mm 6 mps 735 mmHg 58%
13:00 +33°C° 0 mm 5 mps 735 mmHg 56%
14:00 +33°C° 0 mm 5 mps 734 mmHg 54%
15:00 +34°C° 0 mm 5 mps 734 mmHg 53%
16:00 +33°C° 0 mm 4 mps 733 mmHg 55%
17:00 +33°C° 0 mm 4 mps 733 mmHg 56%
18:00 +31°C° 0 mm 3 mps 733 mmHg 58%
19:00 +31°C° 0 mm 3 mps 734 mmHg 61%
20:00 +30°C° 0 mm 3 mps 734 mmHg 63%
21:00 +30°C° 0 mm 3 mps 735 mmHg 66%
22:00 +29°C° 0 mm 3 mps 735 mmHg 68%
23:00 +29°C° 0 mm 3 mps 735 mmHg 71%

Day after tomorrow, 13 August, Thursday

Time Temperature Precipitation Wind Pressure Humidity
00:00 +28°C° 0 mm 3 mps 735 mmHg 73%
01:00 +28°C° 0 mm 3 mps 735 mmHg 75%
02:00 +28°C° 0 mm 3 mps 735 mmHg 76%
03:00 +27°C° 0 mm 4 mps 735 mmHg 77%
04:00 +27°C° 0 mm 4 mps 735 mmHg 78%
05:00 +27°C° 0 mm 4 mps 735 mmHg 79%
06:00 +26°C° 0 mm 4 mps 735 mmHg 80%
07:00 +28°C° 0 mm 4 mps 736 mmHg 74%
08:00 +29°C° 0 mm 4 mps 736 mmHg 69%
09:00 +30°C° 0 mm 5 mps 736 mmHg 63%
10:00 +32°C° 0 mm 4 mps 736 mmHg 59%
11:00 +33°C° 0 mm 4 mps 736 mmHg 54%
12:00 +34°C° 0 mm 4 mps 735 mmHg 50%
13:00 +35°C° 0 mm 3 mps 735 mmHg 47%
14:00 +36°C° 0 mm 3 mps 734 mmHg 44%
15:00 +36°C° 0 mm 2 mps 733 mmHg 42%
16:00 +36°C° 0 mm 3 mps 733 mmHg 43%
17:00 +36°C° 0 mm 3 mps 733 mmHg 44%
18:00 +36°C° 0 mm 3 mps 733 mmHg 45%
19:00 +35°C° 0 mm 3 mps 733 mmHg 47%
20:00 +35°C° 0 mm 3 mps 733 mmHg 49%
21:00 +34°C° 0 mm 2 mps 734 mmHg 51%
22:00 +33°C° 0 mm 3 mps 733 mmHg 55%
23:00 +33°C° 0 mm 4 mps 733 mmHg 59%

14 August, Friday

Time Temperature Precipitation Wind Pressure Humidity
00:00 +32°C° 0 mm 5 mps 733 mmHg 62%
01:00 +30°C° 0 mm 5 mps 733 mmHg 64%
02:00 +30°C° 0 mm 6 mps 732 mmHg 66%
03:00 +29°C° 0 mm 6 mps 731 mmHg 67%
04:00 +29°C° 0 mm 6 mps 732 mmHg 68%
05:00 +29°C° 0 mm 6 mps 732 mmHg 68%
06:00 +29°C° 0 mm 6 mps 732 mmHg 68%
07:00 +30°C° 0 mm 6 mps 732 mmHg 64%
08:00 +32°C° 0 mm 6 mps 733 mmHg 61%
09:00 +33°C° 0 mm 6 mps 733 mmHg 57%
10:00 +34°C° 0.2 mm 6 mps 733 mmHg 57%
11:00 +34°C° 0.2 mm 5 mps 732 mmHg 56%
12:00 +34°C° 0.2 mm 5 mps 732 mmHg 56%
13:00 +36°C° 0 mm 4 mps 731 mmHg 49%
14:00 +38°C° 0 mm 4 mps 731 mmHg 43%
15:00 +39°C° 0 mm 3 mps 730 mmHg 36%
16:00 +39°C° 0 mm 2 mps 729 mmHg 38%
17:00 +39°C° 0 mm 1 mps 729 mmHg 40%
18:00 +39°C° 0 mm 1 mps 729 mmHg 42%
19:00 +37°C° 0 mm 2 mps 729 mmHg 46%
20:00 +36°C° 0 mm 3 mps 729 mmHg 49%
21:00 +34°C° 0 mm 5 mps 730 mmHg 52%
22:00 +33°C° 0.3 mm 5 mps 730 mmHg 57%
23:00 +33°C° 0.3 mm 5 mps 730 mmHg 61%

15 August, Saturday

Time Temperature Precipitation Wind Pressure Humidity
00:00 +32°C° 0.3 mm 5 mps 730 mmHg 66%
01:00 +30°C° 0.1 mm 7 mps 730 mmHg 72%
02:00 +28°C° 0.1 mm 8 mps 730 mmHg 78%
03:00 +27°C° 0.1 mm 9 mps 730 mmHg 83%
04:00 +27°C° 0.4 mm 9 mps 731 mmHg 83%
05:00 +26°C° 0.4 mm 8 mps 731 mmHg 82%
06:00 +26°C° 0.4 mm 7 mps 732 mmHg 81%
07:00 +27°C° 0 mm 7 mps 732 mmHg 79%
08:00 +27°C° 0 mm 7 mps 732 mmHg 77%
09:00 +28°C° 0 mm 6 mps 733 mmHg 75%
10:00 +29°C° 0 mm 6 mps 733 mmHg 69%
11:00 +32°C° 0 mm 7 mps 732 mmHg 63%
12:00 +33°C° 0 mm 7 mps 732 mmHg 57%
13:00 +34°C° 0 mm 6 mps 732 mmHg 56%
14:00 +34°C° 0 mm 6 mps 731 mmHg 55%
15:00 +34°C° 0 mm 5 mps 731 mmHg 55%
16:00 +33°C° 0 mm 5 mps 731 mmHg 57%
17:00 +33°C° 0 mm 4 mps 731 mmHg 58%
18:00 +32°C° 0 mm 4 mps 731 mmHg 60%
19:00 +32°C° 0 mm 4 mps 732 mmHg 64%
20:00 +30°C° 0 mm 4 mps 732 mmHg 67%
21:00 +29°C° 0 mm 5 mps 733 mmHg 70%
22:00 +29°C° 0 mm 5 mps 733 mmHg 73%
23:00 +28°C° 0 mm 5 mps 733 mmHg 76%

16 August, Sunday

Time Temperature Precipitation Wind Pressure Humidity
00:00 +27°C° 0 mm 5 mps 733 mmHg 78%
01:00 +27°C° 0 mm 5 mps 733 mmHg 79%
02:00 +26°C° 0 mm 4 mps 732 mmHg 80%
03:00 +26°C° 0 mm 4 mps 732 mmHg 80%
04:00 +26°C° 0 mm 4 mps 733 mmHg 82%
05:00 +25°C° 0 mm 4 mps 733 mmHg 83%
06:00 +25°C° 0 mm 4 mps 733 mmHg 84%
07:00 +26°C° 0 mm 5 mps 733 mmHg 81%
08:00 +27°C° 0 mm 5 mps 734 mmHg 77%
09:00 +28°C° 0 mm 6 mps 734 mmHg 73%
10:00 +29°C° 0 mm 6 mps 734 mmHg 68%
11:00 +30°C° 0 mm 7 mps 733 mmHg 63%
12:00 +33°C° 0 mm 7 mps 733 mmHg 58%
13:00 +33°C° 0 mm 7 mps 732 mmHg 56%
14:00 +34°C° 0 mm 6 mps 732 mmHg 54%
15:00 +34°C° 0 mm 6 mps 731 mmHg 51%
16:00 +34°C° 0 mm 5 mps 731 mmHg 53%
17:00 +33°C° 0 mm 5 mps 731 mmHg 55%
18:00 +33°C° 0 mm 4 mps 731 mmHg 57%
19:00 +32°C° 0 mm 4 mps 732 mmHg 60%
20:00 +30°C° 0 mm 4 mps 732 mmHg 64%
21:00 +30°C° 0 mm 4 mps 732 mmHg 67%
22:00 +29°C° 0 mm 4 mps 733 mmHg 69%
23:00 +29°C° 0 mm 4 mps 733 mmHg 70%
Show more